Погода в Ак-Дуруге

Россия / Республика Тыва     51°23′46″N   92°11′52″E
темп.,
°C
ветер,
м/с
пор.,
м/с
влажн.,
%
обл.,
%
осадки,
мм/ч
давл.,
гПа
погр.,
м
5 декабря, вс
вс501:00−16зсз22889 0.0 103912
04:00−17з32918 0.0 104114
07:00−18з229529 0.0 104311
10:00−17зсз119575 0.0 104318
13:00−14всв119484 0.1 1041141
16:00−15зюз0097100 0.1 104010
19:00−17з229795 0.1 104016
22:00−18з229686 0.1 104017
6 декабря, пн
пн601:00−19з229689 0.1 104015
04:00−20з229689 0.0 104013
07:00−20з229790 0.1 103912
10:00−18зсз1196100 0.0 103933
13:00−15всв1192100 0.1 1037158
16:00−17вюв1197100 0.0 10369
19:00−18з119772 0.0 103712
22:00−19з229878 0.0 103716
7 декабря, вт
вт701:00−20з229769 0.0 103614
04:00−20з229671 0.0 103514
07:00−21з229581 0.0 103512
10:00−17ссз1191100 0.0 103367
13:00−15всв1187100 0.0 1031155
16:00−15ююв1194100 0.0 103112
19:00−18з2294100 0.0 103314
22:00−18з2293100 0.0 103314
8 декабря, ср
ср801:00−18з2290100 0.0 103515
04:00−16з2288100 0.0 103418
07:00−15зсз2291100 0.0 103513
10:00−14зсз2191100 0.0 103521
13:00−11св1188100 0.0 1034112
16:00−13вюв0197100 0.1 103411
19:00−13з1196100 0.3 103425
22:00−12зсз1196100 0.4 103422
9 декабря, чт
чт901:00−12зсз1195100 0.6 103512
04:00−13зсз229290 0.0 103616
07:00−17з339121 0.1 104016
10:00−16з338822 0.0 104326
13:00−11сз117715 0.0 104293
16:00−15з11879 0.0 10449
19:00−19з339124 0.0 104814
22:00−20з329285 0.0 105014